This is the latest recevied weather packets stored in our database for station/object K4IR. If no packets are shown the sender has not sent any weather packets the latest 10 day(s).
| Time | Temp. | Humidity | Pressure | Rain* | Wind** | Luminosity | Snow |
|---|---|---|---|---|---|---|---|
| 1788012973 | 24.44° C | 99% | 1021.5 hPa | 0 mm | - | 274 W/m² | - |
| 1788012369 | 23.89° C | 99% | 1021.4 hPa | 0 mm | - | 206 W/m² | - |
| 1788011768 | 23.89° C | 99% | 1021.7 hPa | 0.51 mm | - | 147 W/m² | - |
| 1788011169 | 23.33° C | 99% | 1021.7 hPa | 1.27 mm | - | 96 W/m² | - |
| 1788010568 | 23.33° C | 99% | 1021.6 hPa | 3.05 mm | - | 75 W/m² | - |
| 1788009969 | 23.89° C | 99% | 1021.8 hPa | 4.32 mm | - | 60 W/m² | - |
| 1788009367 | 23.89° C | 99% | 1021.6 hPa | 4.32 mm | - | 40 W/m² | - |
| 1788008763 | 23.89° C | 99% | 1021.6 hPa | 4.83 mm | - | 33 W/m² | - |
| 1788008159 | 23.89° C | 99% | 1021.7 hPa | 4.32 mm | - | 34 W/m² | - |
| 1788007557 | 23.89° C | 99% | 1021.7 hPa | 5.33 mm | - | 17 W/m² | - |
| 1788006956 | 23.89° C | 99% | 1021.5 hPa | 8.89 mm | - | 14 W/m² | - |
| 1788006351 | 23.89° C | 99% | 1021.6 hPa | 12.7 mm | - | 3 W/m² | - |
| 1788005750 | 23.89° C | 99% | 1021.2 hPa | 2.29 mm | - | 7 W/m² | - |
| 1788005149 | 23.89° C | 99% | 1021.4 hPa | 8.38 mm | - | 9 W/m² | - |
| 1788004549 | 23.33° C | 99% | 1021.3 hPa | 4.32 mm | - | 4 W/m² | - |
| 1788003949 | 23.33° C | 99% | 1021 hPa | 2.29 mm | - | 2 W/m² | - |
| 1788003349 | 23.33° C | 99% | 1021.1 hPa | 0 mm | - | 1 W/m² | - |
| 1788002749 | 23.89° C | 99% | 1020.9 hPa | 0 mm | - | 1 W/m² | - |
| 1788002146 | 23.89° C | 99% | 1020.8 hPa | 0 mm | - | 2 W/m² | - |
| 1788001542 | 23.89° C | 99% | 1020.3 hPa | 0 mm | - | 3 W/m² | - |
| 1788000937 | 23.33° C | 99% | 1020 hPa | 0 mm | - | 2 W/m² | - |
| 1788000332 | 23.33° C | 99% | 1019.8 hPa | 0 mm | - | 1 W/m² | - |
| 1787999729 | 23.33° C | 99% | 1019.9 hPa | 0 mm | - | 0 W/m² | - |
| 1787999125 | 23.33° C | 99% | 1019.6 hPa | 0 mm | - | 0 W/m² | - |
| 1787998525 | 23.33° C | 99% | 1019.6 hPa | 0 mm | - | 0 W/m² | - |
* Rain latest hour (hover to see other rain measurements)
** Current wind speed in m/s (hover to see current wind gust speed)